Regional Weather Roundup
Issued by NWS San Diego, CA

Home | Current Version | Previous Version | Text Only | Print | Product List | Glossary On
Versions: 1 2 3 4 5 6 7 8 9 10 11 12 13 14 15 16 17 18 19 20 21 22 23 24 25 26 27 28 29 30 31 32 33 34 35 36 37 38 39 40 41 42 43 44 45 46 47 48 49 50
000
ASUS46 KSGX 272011
RWRSGX

SAN DIEGO HOURLY WEATHER ROUNDUP
NATIONAL WEATHER SERVICE SAN DIEGO CA
100 PM PDT TUE JUN 27 2017

NOTE: "FAIR" INDICATES FEW OR NO CLOUDS BELOW 12,000 FEET WITH NO
SIGNIFICANT WEATHER AND/OR OBSTRUCTIONS TO VISIBILITY.

CAZ042-043-060-061-PZZ750-775-272100-

GREATER SAN DIEGO AREA

CITY           SKY/WX    TMP DP  RH WIND       PRES   REMARKS
SAN DIEGO AP   MOSUNNY   79  63  57 NW7       29.91S
NATIONAL CITY    N/A     76  67  74 W3        29.91S
CHULA VISTA      N/A     77  67  72 W7        29.83R
IMPERIAL BEACH MOSUNNY   73  64  73 W10       29.91F
BROWN FIELD    SUNNY     82  58  43 W8        29.90F
MIRAMAR MCAS   SUNNY     91  61  36 W9        29.90S
MONTGOMERY FLD SUNNY     82  60  47 SW10      29.90S
GILLESPIE FLD  SUNNY     93  57  29 W12       29.87F

$$

NORTH SAN DIEGO COUNTY

CITY           SKY/WX    TMP DP  RH WIND       PRES   REMARKS
CAMP PENDLETON SUNNY     80  60  50 SW9       29.88S
OCEANSIDE AP   SUNNY     78  62  57 W12       29.88S
OCEANSIDE HBR    N/A     68  64  85 W3        29.92S
VISTA            N/A     85  62  45 SW3       29.85F
CARLSBAD       SUNNY     76  63  64 SW9       29.89S
DEL MAR          N/A     74  67  78 W1        29.92S
LA JOLLA SCRIP   N/A     71  67  88 SW3       29.90S
FALLBROOK        N/A     92  51  24 SW3       29.88S
ESCONDIDO        N/A     99  48  17 SW6       29.87S HX  95
SAN MARCOS       N/A     89  62  40 NW1       29.89S
POWAY            N/A     95  60  30 W3        29.87F HX  95

$$

EAST SAN DIEGO COUNTY

CITY           SKY/WX    TMP DP  RH WIND       PRES   REMARKS
RAMONA         SUNNY     98  36  11 W13       29.92F
SANTEE LAKES     N/A     92  57  30 SW12      29.85S
LA MESA          N/A     87  63  44 W3        29.81S
JAMUL            N/A     95  55  25 CALM      29.87S
DESCANSO N       N/A     89  37  16 SW3       29.80F
CAMPO            N/A     97  21   6 W13G20    29.95F

$$

ORANGE COUNTY AND THE LOS ANGELES BASIN

CITY           SKY/WX    TMP DP  RH WIND       PRES   REMARKS
JOHN WAYNE AP  SUNNY     83  57  41 SW10      29.88S
LAGUNA BEACH     N/A     77  67  71 SE3       29.85R
LAKE FOREST FR   N/A     94  50  22 W5        29.74F
HUNTINGTON BCH   N/A     75  66  73 SW7       29.90F
LOS ALAMITOS   SUNNY     83  57  41 SW8       29.88S
FULLERTON      SUNNY     89  53  29 SW9       29.87F
LONG BEACH     SUNNY     85  44  23 S8        29.88F
L.A. AP        SUNNY     75  61  61 SW12      29.89F
L.A. DOWNTOWN  SUNNY     87  60  40 CALM      29.86F

$$

THE INLAND EMPIRE

CITY           SKY/WX    TMP DP  RH WIND       PRES   REMARKS
CORONA         SUNNY     94  55  26 W12G20    29.86F
CHINO          SUNNY     99  42  14 W10G16    29.88F
ONTARIO        SUNNY     96  35  11 SW9       29.88F
SAN BERNARDINO SUNNY    100  30   8 W10       29.89F
RIVERSIDE AP   SUNNY     97  40  14 VRB5      29.87F
MORENO VALLEY    N/A     97  27   8 SW6       28.04S
MARCH ARB      SUNNY     99  27   8 W13       29.90F
HORSETHIEF CYN   N/A     97  32  10 NE8       29.83F
PERRIS           N/A    100  27   7 W7        29.88F
HEMET EAST       N/A     94  25   8 SW7       29.89F
FRENCH VALLEY  FAIR      97  34  11 S8        29.91S
TEMECULA         N/A     96  39  13 SW6       29.92F

$$

SAN BERNARDINO AND RIVERSIDE COUNTY MOUNTAINS

CITY           SKY/WX    TMP DP  RH WIND       PRES   REMARKS
BIG BEAR AP    SUNNY     73  10   9 S13G21    30.25S
ANGELUS OAKS     N/A     81  35  19 CALM      29.78S
PINE COVE        N/A     78  28  16 W2        29.86F

$$

SOUTHERN DESERT INCLUDING THE COACHELLA VALLEY

CITY           SKY/WX    TMP DP  RH WIND       PRES   REMARKS
PALM SPRINGS   SUNNY    112  17   3 N13G18    29.75F HX 103
THOUSAND PALMS   N/A    109  18   4 W5        29.70F HX 100
PALM DESERT      N/A    111  37   8 SE6       27.34S HX 104
THERMAL        SUNNY    109  30   6 SE8       29.69F HX 101
BLYTHE         SUNNY    109  19   4 SE10      29.74F HX 100
IMPERIAL AP    SUNNY    111  28   5 SW7       29.71F HX 103
EL CENTRO NAS  SUNNY    109   8   2 W8        29.73F HX  99
YUMA AZ        SUNNY    108  47  13 W9        29.75F HX 104
MEXICALI       SUNNY    106  39  10 S7        29.75  HX 100

$$

UPPER DESERT

CITY           SKY/WX    TMP DP  RH WIND       PRES   REMARKS
VICTORVILLE AP MOSUNNY   99  18   5 W15G24    29.93F
HESPERIA         N/A     93  33  12 W7        29.89F
PALMDALE       SUNNY     96  19   6 SW24G31   29.93F
LANCASTER      SUNNY     97  22   7 SW21G30   29.91F
EDWARDS AFB    SUNNY     99  12   4 SW21G26   29.87F
DAGGETT        SUNNY    105   8   3 W22G30    29.83F HX  96
29 PALMS N     SUNNY    104  -8   1 W10       29.90F HX  95
NEEDLES        SUNNY    108  11   3 VRB7      29.75F HX  99

$$

REGIONAL REPORTS

CITY           SKY/WX    TMP DP  RH WIND       PRES   REMARKS
SANTA BARBARA  SUNNY     74  58  57 S8        29.89S
SANDBERG       SUNNY     88  33  14 S16G23    30.09
LAS VEGAS NV   SUNNY    102  13   4 SE8       29.80F
PHOENIX AZ     MOSUNNY  109  25   5 SW17G23   29.79F HX 101
TIJUANA        SUNNY     84  54  34 W9        29.93R
ENSENADA NW      N/A     73  32  22 W14       29.88F

$$

OFFSHORE ISLANDS

CITY           SKY/WX    TMP DP  RH WIND       PRES   REMARKS
CATALINA ARPT  NOT AVBL
SAN CLEMENTE I PTSUNNY   67  57  70 W15       29.94F
SAN NICOLAS IS FAIR      67  56  67 W30       29.92F FOG

$$

MARINE AND OFFSHORE BUOY REPORTS

STATION/POSITION SKY/WX   TEMP    WIND        PRES    VSBY  SWELL
                          AIR SEA DIR/SP/G                  HT/PER/DIR
                          (F)     (DEG/KT/KT) (MB)    (MI)  (FT/S/D)
TANNER BANKS               61 63  330/ 19/ 23 1013.7F         2/220/14
S CLEMENTE BASIN              65  290/ 14/ 16 1013.2S         3/290/ 7
SAN NICOLAS IS.               60                N/A           2/200/14
SO. S. ROSA ISLA           58 57  300/ 21/ 27 1013.5S         3/200/14
W. S. BARBARA CH           56 55  310/ 21/ 25 1013.4F         2/220/14
M. S. BARBARA CH           61 61  260/ 10/ 14 1013.1R         3/240/ 6
S. MONICA BASIN            64 67  260/ 12/ 16 1012.3F         3/270/ 6
S PEDRO CHANNEL               66                N/A           2/160/12
CMP PENDLETON NS              65                N/A           2/220/14
OCEANSIDE OFFSHR              66                N/A           2/200/13
TORREY PINES OTR              68                N/A           2/210/14
SAN DIEGO BAY                 71              1012.7S
POINT LOMA SOUTH              66                N/A           2/190/13

$$





USA.gov is the U.S. government's official web portal to all federal, state and local government web resources and services.